Location: El Conde
(10.2895°N, 67.2409°W)
Time: 19:21:05
(UTC+00:00)

CZ-4B R/B - Pass Details

Date: 19 May 2024
Orbit: 701 x 799 km, 98.9° (Epoch: 12 June)

Event Time Altitude Azimuth Distance (km) Brightness Sun altitude
Exits shadow 23:33:42 - 166° (SSE) 2,957 6.2 -12.1°
Reaches altitude 10° 23:35:39 10° 166° (SSE) 2,162 5.5 -12.5°
Maximum altitude 23:40:22 87° 82° (E) 705 3.3 -13.6°
Drops below altitude 10° 23:45:06 10° 348° (NNW) 2,167 6.3 -14.7°
Sets 23:47:22 0° 348° (NNW) 3,092 7.2 -15.2°
